Date,TemperatureHighF,TemperatureAvgF,TemperatureLowF,DewpointHighF,DewpointAvgF,DewpointLowF,HumidityHigh,HumidityAvg,HumidityLow,PressureMaxIn,PressureMinIn,WindSpeedMaxMPH,WindSpeedAvgMPH,GustSpeedMaxMPH,PrecipitationSumIn
2013-8-1,92,77,65,64,60,57,85,60,32,29.83,29.71,7,0,0,0.00
2013-8-2,96,78,62,64,58,48,89,54,23,29.82,29.69,12,0,12,0.00
2013-8-3,97,80,63,64,55,48,83,49,20,29.84,29.71,6,0,0,0.00
2013-8-4,95,79,65,59,54,47,76,47,24,29.83,29.74,10,0,14,0.00
2013-8-5,94,76,60,57,53,46,79,50,21,29.86,29.74,12,0,12,0.00
2013-8-6,76,68,62,64,60,54,96,75,52,29.89,29.77,10,0,0,0.10
2013-8-7,91,73,60,62,57,50,97,63,27,29.95,29.78,7,0,0,0.02
2013-8-8,94,74,55,54,43,30,80,41,11,29.86,29.71,5,0,0,0.00
2013-8-9,94,74,54,43,38,31,62,32,11,29.83,29.73,8,0,13,0.00
2013-8-10,93,74,57,58,40,32,60,33,13,29.89,29.78,6,0,0,0.02
2013-8-11,91,71,58,56,51,48,75,53,27,29.88,29.82,4,0,0,0.00
2013-8-12,97,84,66,48,44,40,46,26,16,29.79,29.68,7,0,12,0.00
2013-8-13,99,78,56,47,40,31,62,31,11,29.88,29.73,5,0,0,0.00
2013-8-14,99,78,59,49,43,37,54,32,14,29.84,29.70,7,0,0,0.00
2013-8-15,99,81,68,59,52,44,71,38,20,29.84,29.73,5,0,0,0.00
2013-8-16,100,86,65,55,52,46,65,36,17,29.85,29.77,6,1,0,0.00
2013-8-17,99,86,68,65,56,47,86,41,21,29.84,29.72,9,1,0,0.07
2013-8-19,93,82,66,59,53,50,60,38,27,29.83,29.73,6,1,0,0.00
2013-8-20,100,79,58,54,50,43,76,42,15,29.84,29.66,9,0,13,0.00
2013-8-21,82,76,66,61,56,50,73,51,38,29.84,29.72,5,0,0,0.00
2013-8-22,94,77,65,63,56,52,83,53,26,29.86,29.67,6,0,0,0.02
2013-8-23,93,76,60,61,56,50,91,56,25,29.81,29.65,10,0,0,0.00
2013-8-24,86,70,64,66,59,52,94,68,38,29.88,29.72,3,0,0,0.10
2013-8-25,72,66,63,67,63,59,97,90,77,29.97,29.83,1,0,0,0.64
2013-8-26,86,72,63,71,65,61,98,81,52,29.97,29.77,7,0,0,0.12
2013-8-27,92,75,63,66,61,56,93,66,34,29.86,29.69,5,0,0,0.00
2013-8-28,91,74,61,66,60,57,92,67,34,29.86,29.72,5,0,0,0.00
2013-8-29,90,74,61,66,62,58,95,69,40,30.00,29.82,5,0,0,0.87
2013-8-30,86,69,64,71,66,63,98,90,51,29.98,29.82,5,0,0,0.72
2013-8-31,84,69,63,71,66,63,99,92,58,29.92,29.80,9,0,0,0.17